Thomson, GA

12:32 PM EST on December 05, 2019 (GMT -0500)
Thomson-McDuffie County

Weather History for KHQU - October, 2019

Change the Weather History Date:

Wednesday, October 2, 2019

  Actual Average (KDNL) Record (KDNL)
Temperature  
Mean Temperature 82 °F -  
Max Temperature 96 °F 77 °F 88 °F (2016)
Min Temperature 68 °F 59 °F 35 °F (2001)
Cooling Degree Days 17    
Growing Degree Days 32 (Base 50)    
Moisture  
Dew Point 69 °F    
Average Humidity 69    
Maximum Humidity 98    
Minimum Humidity 38    
Precipitation  
Precipitation 0.00 in - - ()
Sea Level Pressure  
Sea Level Pressure 30.02 in    
Wind  
Wind Speed 2 mph (NW)    
Max Wind Speed 8 mph    
Max Gust Speed -    
Visibility 9 miles    
Events      
Averages and records for this station are not official NWS values.
T = Trace of Precipitation, MM = Missing Value Source: NWS Daily Summary

Daily Weather History Graph

Daily Weather History Graph

Search for Another Location

Airport or City:

Astronomy

Oct. 02, 2019 Rise Set
Actual Time 7:24 AM EDT 7:13 PM EDT
Civil Twilight 7:00 AM EDT 7:38 PM EDT
Nautical Twilight 6:31 AM EDT 8:06 PM EDT
Astronomical Twilight 6:02 AM EDT 8:35 PM EDT
Moon 11:37 AM EDT (10/2) 10:19 PM EDT (10/2)
Length of Visible Light 12h 38m
Length of Day
11h 48m
Waxing Crescent, 20% of the Moon is Illuminated
Oct 2
Waxing Crescent
Oct 5
First Quarter
Oct 13
Full
Oct 21
Last Quarter
Oct 27
New

Hourly Weather History & Observations

Time (EDT) Temp. Heat Index Dew Point Humidity Pressure Visibility Wind Dir Wind Speed Gust Speed Precip Events Conditions
12:15 AM 74.8 °F - 70.3 °F 86% 30.05 in 10.0 mi Calm Calm - N/A   Clear
12:35 AM 74.5 °F - 70.3 °F 87% 30.05 in 10.0 mi SW 3.5 mph - N/A   Clear
12:55 AM 74.1 °F - 70.3 °F 88% 30.04 in 10.0 mi WSW 3.5 mph - N/A   Clear
1:15 AM 74.3 °F - 70.3 °F 87% 30.04 in 10.0 mi Calm Calm - N/A   Clear
1:35 AM 74.5 °F - 70.0 °F 86% 30.04 in 10.0 mi SW 3.5 mph - N/A   Clear
1:55 AM 75.4 °F - 70.2 °F 84% 30.05 in 10.0 mi WSW 3.5 mph - N/A   Clear
2:15 AM 75.0 °F - 70.0 °F 84% 30.04 in 10.0 mi West 3.5 mph - N/A   Clear
2:35 AM 74.1 °F - 69.8 °F 86% 30.05 in 10.0 mi Calm Calm - N/A   Clear
2:55 AM 73.2 °F - 69.8 °F 89% 30.04 in 10.0 mi Calm Calm - N/A   Clear
3:15 AM 72.7 °F - 69.4 °F 90% 30.04 in 10.0 mi Calm Calm - N/A   Clear
3:35 AM 72.0 °F - 69.4 °F 92% 30.04 in 7.0 mi Calm Calm - N/A   Clear
3:55 AM 71.4 °F - 69.3 °F 93% 30.04 in 7.0 mi Calm Calm - N/A   Clear
4:15 AM 71.1 °F - 69.1 °F 93% 30.04 in 7.0 mi Calm Calm - N/A   Clear
4:35 AM 70.9 °F - 68.9 °F 93% 30.04 in 7.0 mi Calm Calm - N/A   Clear
4:55 AM 70.5 °F - 68.9 °F 95% 30.04 in 7.0 mi Calm Calm - N/A   Clear
5:15 AM 70.0 °F - 68.5 °F 95% 30.05 in 7.0 mi Calm Calm - N/A   Clear
5:35 AM 70.2 °F - 68.7 °F 95% 30.05 in 7.0 mi Calm Calm - N/A   Clear
5:55 AM 70.0 °F - 68.5 °F 95% 30.06 in 7.0 mi Calm Calm - N/A   Clear
6:15 AM 69.4 °F - 68.4 °F 96% 30.06 in 7.0 mi Calm Calm - N/A   Clear
6:35 AM 69.1 °F - 68.0 °F 96% 30.06 in 5.0 mi Calm Calm - N/A   Clear
6:55 AM 68.7 °F - 68.0 °F 98% 30.07 in 5.0 mi Calm Calm - N/A   Clear
7:35 AM 68.4 °F - 67.6 °F 98% 30.07 in 5.0 mi Calm Calm - N/A   Clear
7:55 AM 68.7 °F - 67.8 °F 97% 30.07 in 5.0 mi Calm Calm - N/A   Clear
8:15 AM 69.4 °F - 68.2 °F 96% 30.08 in 7.0 mi Calm Calm - N/A   Clear
8:35 AM 71.6 °F - 68.9 °F 91% 30.08 in 7.0 mi Calm Calm - N/A   Clear
8:55 AM 73.9 °F - 69.1 °F 85% 30.09 in 10.0 mi North 3.5 mph - N/A   Clear
9:15 AM 76.5 °F - 68.7 °F 77% 30.09 in 10.0 mi North 4.6 mph - N/A   Clear
9:35 AM 79.0 °F - 66.9 °F 66% 30.09 in 10.0 mi NW 6.9 mph - N/A   Clear
9:55 AM 81.0 °F 82.9 °F 65.5 °F 59% 30.09 in 10.0 mi North 5.8 mph - N/A   Clear
10:15 AM 82.4 °F 84.1 °F 64.8 °F 55% 30.09 in 10.0 mi NW 8.1 mph - N/A   Clear
10:35 AM 83.8 °F 85.8 °F 65.7 °F 54% 30.08 in 10.0 mi NW 5.8 mph - N/A   Clear
10:55 AM 85.5 °F 88.5 °F 67.5 °F 55% 30.08 in 10.0 mi WNW 6.9 mph - N/A   Clear
11:15 AM 86.9 °F 90.6 °F 68.4 °F 54% 30.07 in 10.0 mi NW 8.1 mph - N/A   Clear
11:35 AM 87.6 °F 91.9 °F 69.1 °F 54% 30.07 in 10.0 mi NW 3.5 mph - N/A   Clear
11:55 AM 88.2 °F 92.5 °F 68.9 °F 53% 30.07 in 10.0 mi North 5.8 mph - N/A   Clear
12:15 PM 88.5 °F 92.7 °F 69.1 °F 52% 30.06 in 10.0 mi NE 6.9 mph - N/A   Clear
12:35 PM 90.0 °F 94.5 °F 69.3 °F 50% 30.05 in 10.0 mi NE 6.9 mph - N/A   Clear
12:55 PM 89.4 °F 94.0 °F 68.9 °F 51% 30.05 in 10.0 mi SW 3.5 mph - N/A   Clear
1:15 PM 91.0 °F 96.1 °F 69.3 °F 49% 30.04 in 10.0 mi WSW 3.5 mph - N/A   Clear
1:35 PM 92.5 °F 97.4 °F 69.3 °F 46% 30.03 in 10.0 mi ENE 4.6 mph - N/A   Mostly Cloudy
1:55 PM 91.4 °F 96.3 °F 68.9 °F 48% 30.01 in 10.0 mi ESE 3.5 mph - N/A   Mostly Cloudy
2:15 PM 93.9 °F 98.6 °F 68.4 °F 43% 30.00 in 10.0 mi NE 6.9 mph - N/A   Clear
2:35 PM 92.8 °F 96.6 °F 67.5 °F 43% 29.99 in 10.0 mi WNW 4.6 mph - N/A   Clear
2:55 PM 94.3 °F 98.7 °F 68.0 °F 42% 29.98 in 10.0 mi NE 3.5 mph - N/A   Scattered Clouds
3:15 PM 93.9 °F 98.6 °F 68.0 °F 43% 29.97 in 10.0 mi Calm Calm - N/A   Clear
3:35 PM 95.0 °F 98.5 °F 66.6 °F 39% 29.97 in 10.0 mi NNE 6.9 mph - N/A   Clear
3:55 PM 96.3 °F 100.2 °F 66.9 °F 38% 29.96 in 10.0 mi North 8.1 mph - N/A   Mostly Cloudy
4:35 PM 95.2 °F 99.3 °F 67.3 °F 40% 29.95 in 10.0 mi NNE 3.5 mph - N/A   Mostly Cloudy
4:55 PM 95.0 °F 99.0 °F 66.9 °F 40% 29.95 in 10.0 mi Calm Calm - N/A   Scattered Clouds
5:15 PM 95.0 °F 98.5 °F 66.6 °F 39% 29.94 in 10.0 mi SSE 3.5 mph - N/A   Scattered Clouds
5:35 PM 95.5 °F 99.4 °F 66.9 °F 39% 29.94 in 10.0 mi Calm Calm - N/A   Mostly Cloudy
5:55 PM 95.0 °F 99.0 °F 67.1 °F 40% 29.95 in 10.0 mi WSW 3.5 mph - N/A   Mostly Cloudy
6:15 PM 94.3 °F 98.2 °F 67.1 °F 41% 29.95 in 10.0 mi Calm Calm - N/A   Scattered Clouds
6:35 PM 91.8 °F 95.5 °F 67.5 °F 45% 29.95 in 10.0 mi SW 4.6 mph - N/A   Scattered Clouds
6:55 PM 90.3 °F 94.7 °F 68.5 °F 49% 29.95 in 10.0 mi WSW 3.5 mph - N/A   Clear
7:15 PM 87.6 °F 92.3 °F 69.4 °F 55% 29.95 in 10.0 mi Calm Calm - N/A   Clear
7:35 PM 85.1 °F 89.8 °F 70.2 °F 61% 29.95 in 10.0 mi Calm Calm - N/A   Clear
7:55 PM 84.0 °F 88.4 °F 70.0 °F 63% 29.96 in 10.0 mi Calm Calm - N/A   Clear
8:15 PM 82.2 °F 86.4 °F 70.5 °F 68% 29.96 in 10.0 mi Calm Calm - N/A   Clear
8:35 PM 81.3 °F 85.2 °F 70.7 °F 70% 29.97 in 10.0 mi Calm Calm - N/A   Clear
8:55 PM 80.2 °F 83.6 °F 70.5 °F 72% 29.98 in 10.0 mi Calm Calm - N/A   Clear
9:15 PM 79.2 °F - 70.2 °F 74% 29.98 in 7.0 mi Calm Calm - N/A   Haze
9:35 PM 78.4 °F - 70.5 °F 77% 29.98 in 10.0 mi Calm Calm - N/A   Clear
9:55 PM 78.3 °F - 70.7 °F 77% 29.99 in 10.0 mi Calm Calm - N/A   Clear
10:15 PM 77.9 °F - 70.5 °F 78% 29.99 in 10.0 mi Calm Calm - N/A   Clear
10:35 PM 78.4 °F - 70.0 °F 75% 29.99 in 10.0 mi West 3.5 mph - N/A   Clear
10:55 PM 78.6 °F - 69.8 °F 74% 30.00 in 10.0 mi WSW 4.6 mph - N/A   Clear
11:15 PM 79.7 °F - 69.1 °F 70% 30.01 in 10.0 mi West 3.5 mph - N/A   Clear
11:35 PM 79.0 °F - 68.9 °F 71% 30.01 in 10.0 mi Calm Calm - N/A   Clear
11:55 PM 77.7 °F - 69.1 °F 75% 30.01 in 10.0 mi Calm Calm - N/A   Clear